Tracking 18823 objects as of 23-October-2017
HD Live streaming from Space Station
objects crossing your sky now

USA 121

Track USA 121 now!
10-day predictions
USA 121 is classified as:


NORAD ID: 23908
Int'l Code: 1996-029C
Perigee: 654.4 km
Apogee: 1,572.0 km
Inclination: 63.4 °
Period: 107.4 minutes
Semi major axis: 7484 km
RCS: Unknown
Launch date: May 12, 1996
Source: United States (US)
Launch site: AIR FORCE WESTERN TEST RANGE (AFWTR)
aabbcc
Your satellite tracking list
Your tracking list is empty





NASA's NSSDC Master Catalog

Two Line Element Set (TLE):
1 23908U 96029C   17288.26721712 0.00000000  00000-0  00000-0 0    05
2 23908  63.3743 105.0865 0613000  13.0945 346.9055 13.40860303    07
Source of the keplerian elements: McCants